sat.trackr.live / text

‹ back to catalog

2024-024F

NORAD 58922 · 2024-024F

PAYLOAD ACTIVE UNKNOWN

§ Identity

Operator
Country
PRC
Launch date
2024-02-03
Launch site
SCSLA
Launch vehicle
Mass (kg)
RCS (m²)

External: N2YO · Heavens-Above · Gunter

§ Orbital elements

Epoch: 2026-05-25T04:30:14.731200Z

Period
94.64 min
Inclination
97.3041°
Eccentricity
0.0014288
Mean motion
15.21635418 rev/d
Perigee alt
491.1 km
Apogee alt
510.7 km
Semi-major
6,879.0 km
B*
4.4601e-4
RAAN
210.4268°
Arg perigee
120.4446°
Mean anomaly
239.8204°
Rev number
12,776

§ Raw data

2024-024F1 58922U 24024F   26145.18767050  .00010040  00000+0  44601-3 0  99922 58922  97.3041 210.4268 0014288 120.4446 239.8204 15.21635418127766

JSON: /api/v1/satellites/58922 · /tle

For live sub-satellite position, see the globe view (requires WebGL).

§ Visibility from observer

Set your observer location to see the next 7 days of passes ≥ 10°. The values pass through the URL so the page stays shareable.

No JS? Fill the form by hand. The geolocation button needs JavaScript.